This demonstration page uses our WeatherBlox Daily Observations layout. Learn more.

Left ArrowRight Arrow

53.62937, 11.41316

Hourly Observations for January 29, 2016

Temp ( °F °C ) Dew Point ( °F °C ) Humidity (%) Winds ( mph kmh ) Pressure ( in mb ) Visibility ( mi km ) Precip ( " mm )
5:20 am 05:20 Mostly Clear 37 3 32 0 81 81 SSW 13 20 30.09 1019 7 11 N/A
5:50 am 05:50 Mostly Clear 37 3 32 0 81 81 SSW 14 22 30.09 1019 7 11 N/A
6:20 am 06:20 Cloudy with Light Rain 37 3 32 0 81 81 SSW 16 26 30.06 1018 30 48 N/A
6:50 am 06:50 Cloudy 39 4 32 0 75 75 SW 17 28 30.06 1018 30 48 N/A
7:20 am 07:20 Cloudy 39 4 32 0 75 75 SW 16 26 30.06 1018 30 48 N/A
7:50 am 07:50 Cloudy 39 4 34 1 81 81 SSW 15 24 30.06 1018 30 48 N/A
8:20 am 08:20 Cloudy 39 4 34 1 81 81 SSW 17 28 30.03 1017 30 48 N/A
8:50 am 08:50 Cloudy 41 5 34 1 76 76 SSW 17 28 30.03 1017 30 48 N/A
9:20 am 09:20 Cloudy 41 5 34 1 76 76 SSW 20 31 30.03 1017 30 48 N/A
9:50 am 09:50 Cloudy 41 5 36 2 81 81 SSW 20 31 30.03 1017 30 48 N/A
10:20 am 10:20 Cloudy 41 5 36 2 81 81 SW 21 33 30.03 1017 30 48 N/A
10:50 am 10:50 Cloudy 41 5 37 3 87 87 SW 21 33 30.03 1017 30 48 N/A
11:20 am 11:20 Cloudy 43 6 37 3 81 81 SW 21 33 30.03 1017 30 48 N/A
11:50 am 11:50 Cloudy 43 6 39 4 87 87 SW 22 35 30.00 1016 30 48 N/A
12:20 pm 12:20 Cloudy 45 7 39 4 81 81 SW 24 39 30.00 1016 30 48 N/A
12:50 pm 12:50 Cloudy 45 7 39 4 81 81 SW 23 37 29.97 1015 30 48 N/A
1:20 pm 13:20 Cloudy 45 7 39 4 81 81 SW 25 41 29.97 1015 30 48 N/A
1:50 pm 13:50 Cloudy 45 7 39 4 81 81 SW 24 39 29.97 1015 30 48 N/A
2:20 pm 14:20 Cloudy 46 8 39 4 76 76 SW 22 35 29.97 1015 30 48 N/A
2:50 pm 14:50 Cloudy 46 8 39 4 76 76 SW 23 37 29.97 1015 30 48 N/A
3:20 pm 15:20 Cloudy 46 8 41 5 82 82 SW 24 39 29.97 1015 30 48 N/A
3:50 pm 15:50 Cloudy 46 8 41 5 82 82 SW 26 43 29.97 1015 30 48 N/A
4:20 pm 16:20 Cloudy 48 9 41 5 76 76 SW 25 41 29.94 1014 30 48 N/A
4:50 pm 16:50 Cloudy 48 9 41 5 76 76 SW 23 37 29.94 1014 30 48 N/A
5:20 pm 17:20 Cloudy 48 9 43 6 82 82 SW 23 37 29.94 1014 30 48 N/A
5:50 pm 17:50 Cloudy 48 9 43 6 82 82 SW 25 41 29.94 1014 30 48 N/A

Powered by AerisWeather